Total_Precipitation_Accumulation
2.03 2.36 2.83 3.54 4.00 4.16 4.26 4.47 4.53 4.63 4.65 4.67 4.67 4.82 4.99 5.03 5.05 5.20 5.25 5.11 5.03 5.20 5.61 5.66 5.52 5.14 4.82 4.67 4.67 4.68 4.45 4.13 3.94 3.99 3.80 3.39 3.04 2.94 2.83 2.83 2.90 2.83 2.88
1.91 2.36 2.84 3.32 3.60 3.98 4.18 4.43 4.49 4.67 4.94 5.35 5.86 6.13 6.27 6.15 6.00 5.92 5.85 5.68 5.57 5.70 5.83 5.98 5.65 5.27 5.06 4.79 4.54 4.53 4.37 4.06 4.00 4.09 4.19 3.74 3.44 2.90 2.50 2.63 2.75 2.81 2.91
1.90 2.26 2.50 2.91 3.22 3.61 3.95 4.21 4.57 4.96 5.46 6.16 6.99 7.35 7.16 6.73 6.50 6.21 6.12 5.85 5.63 5.64 5.83 5.57 5.32 5.13 4.90 4.66 4.46 4.49 4.46 4.10 3.94 4.05 4.34 4.04 3.64 3.21 2.85 2.60 2.57 2.74 2.88
1.91 2.09 2.35 2.68 2.90 3.24 3.70 4.18 4.74 5.32 6.00 6.66 7.14 7.38 7.30 7.06 6.76 6.28 5.85 5.46 5.14 4.98 4.92 4.81 4.60 4.52 4.37 4.21 3.97 4.04 4.16 4.10 3.83 3.77 3.60 3.55 3.46 3.42 3.11 2.81 2.63 2.64 2.76
1.81 1.92 2.10 2.36 2.70 3.15 3.62 4.14 4.65 5.37 5.90 6.46 6.88 7.17 7.16 7.07 6.70 5.96 5.29 4.87 4.51 4.25 3.96 3.79 3.76 3.75 3.71 3.52 3.33 3.36 3.43 3.41 3.40 3.40 3.24 3.25 3.23 3.15 3.03 2.91 2.82 2.77 2.64
1.87 1.95 1.99 2.14 2.67 3.12 3.65 4.03 4.38 5.10 5.79 6.30 6.66 6.95 6.94 6.77 6.14 5.40 4.82 4.43 4.11 3.84 3.57 3.42 3.31 3.29 3.21 3.04 2.92 2.91 2.90 2.91 2.94 3.05 3.06 3.01 2.95 2.90 2.97 2.78 2.69 2.70 2.56
1.78 1.79 2.01 2.23 2.85 3.31 3.56 3.80 4.10 4.56 5.06 5.50 5.80 5.99 6.04 5.80 5.34 4.91 4.47 4.09 3.83 3.54 3.18 2.84 2.70 2.67 2.77 2.78 2.76 2.74 2.66 2.66 2.69 2.66 2.67 2.69 2.62 2.69 2.83 2.83 2.67 2.56 2.45
1.71 1.70 1.95 2.25 2.47 2.76 3.08 3.40 3.64 3.97 4.26 4.45 4.68 4.65 4.62 4.57 4.34 4.00 3.61 3.33 3.02 2.81 2.62 2.40 2.26 2.25 2.35 2.44 2.56 2.50 2.35 2.38 2.51 2.51 2.63 2.58 2.52 2.65 2.68 2.83 2.97 2.89 2.63
1.63 1.75 1.96 2.12 2.22 2.41 2.68 2.88 3.03 3.32 3.49 3.49 3.51 3.45 3.33 3.35 3.33 3.21 2.92 2.60 2.37 2.19 2.12 2.08 2.06 1.91 1.96 2.14 2.25 2.23 2.20 2.27 2.32 2.35 2.46 2.48 2.44 2.54 2.52 2.68 2.95 3.18 3.05
1.69 1.79 1.90 2.11 2.20 2.21 2.42 2.58 2.58 2.67 2.82 2.90 2.78 2.59 2.64 2.72 2.70 2.65 2.41 2.19 1.99 1.82 1.73 1.76 1.75 1.65 1.67 1.84 1.99 2.01 2.12 2.23 2.18 2.17 2.22 2.22 2.19 2.40 2.50 2.54 2.71 2.98 3.14
1.84 1.90 1.89 1.99 2.05 2.05 2.12 2.26 2.29 2.33 2.35 2.44 2.44 2.32 2.24 2.17 2.18 2.22 2.13 1.97 1.83 1.71 1.66 1.59 1.62 1.65 1.60 1.66 1.79 1.82 1.92 2.04 2.06 2.00 1.96 1.96 2.10 2.23 2.25 2.35 2.48 2.74 3.04
2.01 2.04 2.03 1.96 1.99 2.12 2.25 2.17 2.16 2.16 2.18 2.16 2.19 2.23 2.04 1.94 1.90 1.88 1.83 1.70 1.67 1.63 1.59 1.54 1.55 1.55 1.53 1.56 1.59 1.59 1.67 1.81 1.82 1.81 1.85 1.71 1.79 1.99 2.09 2.22 2.29 2.46 2.70
2.17 2.27 2.17 1.96 1.90 1.96 2.02 1.92 1.85 1.85 1.73 1.70 1.83 1.93 1.77 1.64 1.64 1.61 1.58 1.58 1.52 1.48 1.41 1.38 1.35 1.32 1.39 1.46 1.51 1.53 1.56 1.56 1.60 1.70 1.72 1.66 1.80 1.89 2.03 2.14 2.18 2.35 2.44
2.14 2.26 2.26 2.05 1.96 1.84 1.80 1.71 1.63 1.60 1.58 1.55 1.55 1.58 1.58 1.53 1.50 1.47 1.47 1.44 1.37 1.32 1.24 1.17 1.17 1.22 1.24 1.24 1.28 1.34 1.41 1.48 1.50 1.56 1.58 1.59 1.68 1.81 2.04 2.11 2.26 2.44 2.57
2.17 2.30 2.21 2.05 2.00 1.94 1.88 1.66 1.55 1.52 1.51 1.54 1.53 1.48 1.47 1.42 1.43 1.43 1.40 1.33 1.31 1.22 1.20 1.16 1.15 1.17 1.17 1.09 1.13 1.27 1.34 1.48 1.54 1.53 1.50 1.47 1.51 1.65 1.80 1.86 2.14 2.43 2.61
2.17 2.15 2.08 2.04 2.01 1.97 1.90 1.66 1.49 1.42 1.48 1.56 1.56 1.49 1.45 1.39 1.39 1.43 1.42 1.40 1.41 1.39 1.31 1.29 1.25 1.18 1.02 1.08 1.14 1.19 1.34 1.47 1.50 1.59 1.55 1.37 1.34 1.38 1.44 1.51 1.64 1.97 2.27
2.40 2.30 2.22 2.24 2.24 2.10 1.90 1.77 1.56 1.45 1.46 1.49 1.49 1.54 1.49 1.39 1.33 1.33 1.45 1.45 1.49 1.45 1.39 1.34 1.28 1.22 1.16 1.15 1.07 1.08 1.20 1.42 1.51 1.58 1.63 1.43 1.28 1.38 1.38 1.37 1.36 1.49 1.76
2.35 2.29 2.25 2.30 2.28 2.13 2.02 1.89 1.63 1.48 1.43 1.41 1.34 1.40 1.41 1.40 1.35 1.38 1.44 1.46 1.53 1.53 1.41 1.30 1.28 1.34 1.15 1.10 1.03 1.07 1.17 1.36 1.46 1.47 1.49 1.57 1.54 1.35 1.35 1.44 1.51 1.62 1.73
2.18 2.20 2.21 2.26 2.23 2.14 2.02 1.87 1.67 1.49 1.39 1.34 1.29 1.23 1.20 1.22 1.27 1.29 1.37 1.52 1.57 1.51 1.34 1.24 1.27 1.25 1.07 0.97 0.92 0.95 1.08 1.28 1.36 1.28 1.23 1.29 1.32 1.24 1.27 1.47 1.73 1.89 2.05
1.99 2.00 2.03 2.09 2.10 2.05 1.98 1.93 1.81 1.59 1.40 1.26 1.13 1.15 1.19 1.19 1.21 1.28 1.38 1.39 1.44 1.43 1.31 1.21 1.20 1.14 1.02 0.92 0.83 0.83 0.90 1.06 1.14 1.21 1.19 1.21 1.19 1.16 1.24 1.46 1.84 2.06 2.14
1.87 1.77 1.70 1.74 1.83 1.83 1.81 1.81 1.70 1.49 1.24 1.11 1.06 1.13 1.13 1.15 1.15 1.29 1.32 1.32 1.29 1.36 1.35 1.28 1.18 1.09 0.96 0.81 0.76 0.74 0.75 0.87 1.02 1.08 1.14 1.17 1.16 1.10 1.19 1.43 1.72 1.95 2.00
1.77 1.64 1.58 1.46 1.42 1.46 1.59 1.65 1.49 1.25 1.09 1.03 1.01 1.03 1.03 0.96 0.95 1.23 1.34 1.33 1.39 1.33 1.25 1.27 1.20 1.04 0.91 0.73 0.60 0.59 0.63 0.74 0.99 1.11 1.10 1.13 1.15 1.13 1.24 1.35 1.65 1.94 2.10
1.61 1.51 1.40 1.28 1.17 1.23 1.31 1.31 1.24 1.14 1.01 1.00 1.04 0.98 0.94 1.01 0.98 1.04 1.12 1.17 1.27 1.21 1.09 1.07 1.04 0.92 0.79 0.66 0.54 0.49 0.52 0.63 0.78 0.96 1.09 1.07 1.03 1.18 1.45 1.61 1.78 2.01 2.18
1.48 1.38 1.35 1.29 1.19 1.11 1.06 1.03 0.92 0.95 1.00 1.04 1.08 1.05 0.99 1.02 0.99 0.97 0.94 0.87 0.90 0.94 0.99 0.98 0.95 0.89 0.81 0.63 0.49 0.48 0.52 0.59 0.67 0.80 1.01 1.16 1.22 1.37 1.67 1.91 2.02 2.09 2.07
1.32 1.25 1.37 1.34 1.23 1.08 0.99 0.92 0.82 0.87 1.07 1.09 1.03 1.02 0.96 0.90 0.92 0.87 0.84 0.77 0.74 0.78 0.83 0.84 0.86 0.84 0.73 0.58 0.54 0.49 0.50 0.57 0.66 0.79 1.00 1.18 1.28 1.49 1.72 1.86 1.89 1.89 1.85
1.16 1.17 1.27 1.25 1.16 1.08 1.04 0.96 0.85 0.82 0.93 1.01 0.97 0.90 0.88 0.81 0.75 0.74 0.70 0.64 0.58 0.59 0.60 0.61 0.60 0.60 0.61 0.60 0.54 0.50 0.54 0.63 0.74 0.85 1.09 1.28 1.39 1.56 1.68 1.80 1.77 1.69 1.67